Showing default

COSMOS 2476 (GLONASS), 37867

Orbit data source: Space-Track

COSMOS 2476 (GLONASS), 37867 is a Commonwealth of Independent States-origin payload satellite in MEO that was launched on Fri, 04 Nov 2011 UTC via a PROTON-M/BRIZ-M launch vehicle from the Tyuratam Missile And Space Complex (TTMTR). Payload-class satellites include a variety of spacecraft equipped with specific instruments for various scientific and technological missions. These include communications satellites like Starlink; space stations such as the ISS; scientific satellites like the Hubble; Earth observation satellites from companies like Planet Labs, Umbra, and HawkEye 360; GPS; miniature CubeSats for education and research; and military/defense satellites.

Loading next visibility...
Identifier
37867, 2011-064A
Orbit
MEO
Country
Flag of CISCIS
Related business
Manufacturer
Resehetnev ISS
Mission
Operational Defense Navigation
Bus & Motor
URAGAN, Unknown motor
Mass
1,450 kg wet, ~1,200 kg dry
Launch date (UTC)
2011-11-04 (14 years ago)
Launch vehicle
PROTON-M/BRIZ-M
Launch site
Tyuratam Missile And Space Complex (TTMTR)
Object type
Payload
Rocket body
Debris
Shape & HBR
Cyl + 1 Ant + 2 Pan, 3.9 m
Radar Cross Section
8.467 m², Large (>1 m²)

Expand to show TLE details & history
Last TLE update: 11 hours ago

TLE from 11 hours ago
0 COSMOS 2476 (GLONASS)
1 37867U 11064A   25350.43632965 -.00000054  00000-0  00000+0 0  9995
2 37867  65.1640  79.0464 0024350 234.7014 128.9307  2.13101449109870
Epoch: 2025-12-16T10:28Z
TLE epoch observation values (Epoch: 2025-12-16T10:28:18.881Z)
Latitude
3.48469°
Longitude
-161.73563°
Altitude
19,169.329 km
Speed
3.947 km/s
True Right ascension
05h 22m 39s
True Declination
3° 28' 44"
Sunlit
Object was in daylight at epoch
Visualization orbit readout
Latitude
Unknown
Longitude
Unknown
Altitude
Unknown
Speed
Unknown
Apparent Right ascension
Unknown
Apparent Declination
Unknown
Sunlit
N/A
Visualization observer readout
Local Sidereal Time
20:19:57
Azimuth
Unknown
Elevation
Unknown
Doppler factor
Unknown
Orbital elements
Apogee altitude
19,191.652 km
Perigee altitude
19,067.429 km
Semi-major axis
25,507.678 km
Eccentricity
0.00244
Inclination
65.164°
RAAN
79.0464°
Arg. of periapsis
234.7014°
True anomaly
129.14734°
Mean anomaly
128.9307°
Eccentric anomaly
129.03906°
Mean motion
0.53277 °/min
Orbital period
675.72 mins
BSTAR
0
Loading maneuver chart data...
Computing Atmospheric mass density...
Loading historical data...
Loading historical data...
Loading historical data...
Loading historical data...
Loading historical data...
Loading historical data...
Loading historical data...

Documentation

Showing up to 5 results
|